This demonstration page uses our WeatherBlox Daily Observations layout. Learn more.

Left ArrowRight Arrow

39.51506, -84.39828

Hourly Observations for April 19, 2016

Temp ( °F °C ) Dew Point ( °F °C ) Humidity (%) Winds ( mph kmh ) Pressure ( in mb ) Visibility ( mi km ) Precip ( " mm )
12:15 am 00:15 Clear 56 13.2 48 8.7 74 74 N N/A 30.21 1023 10 16 N/A
12:35 am 00:35 Clear 57 13.8 48 8.8 72 72 N N/A 30.21 1023 10 16 N/A
12:55 am 00:55 Clear 57 13.7 48 8.9 73 73 N N/A 30.21 1023 10 16 N/A
1:15 am 01:15 Clear 55 12.5 47 8.6 77 77 N N/A 30.21 1023 10 16 N/A
1:35 am 01:35 Clear 55 12.5 47 8.4 76 76 N N/A 30.21 1023 10 16 N/A
1:55 am 01:55 Clear 55 12.5 47 8.6 77 77 N N/A 30.21 1023 10 16 N/A
2:15 am 02:15 Clear 55 12.5 46 8 74 74 N N/A 30.21 1023 10 16 N/A
2:35 am 02:35 Clear 55 12.5 46 7.6 72 72 N N/A 30.21 1023 10 16 N/A
2:55 am 02:55 Clear 55 12.5 48 9 79 79 N 3 6 30.21 1023 10 16 N/A
3:15 am 03:15 Clear 55 12.5 48 8.7 78 78 N N/A 30.21 1023 10 16 N/A
3:35 am 03:35 Clear 53 11.5 46 8 79 79 N N/A 30.18 1022 10 16 N/A
3:55 am 03:55 Clear 52 11 45 7.2 78 78 N N/A 30.21 1023 10 16 N/A
4:15 am 04:15 Clear 52 11 47 8.1 82 82 N N/A 30.21 1023 10 16 N/A
4:35 am 04:35 Clear 52 11 47 8.3 84 84 NE 3 6 30.18 1022 10 16 N/A
4:55 am 04:55 Clear 52 11 47 8.1 82 82 N N/A 30.18 1022 10 16 N/A
5:15 am 05:15 Clear 49 9.6 45 7 84 84 N N/A 30.21 1023 10 16 N/A
5:35 am 05:35 Clear 50 10.2 46 7.9 86 86 N N/A 30.21 1023 10 16 N/A
5:55 am 05:55 Clear 49 9.6 45 7.1 85 85 N N/A 30.18 1022 10 16 N/A
6:15 am 06:15 Clear 49 9.6 45 7 84 84 N N/A 30.18 1022 10 16 N/A
6:35 am 06:35 Clear 49 9.6 45 7 84 84 N N/A 30.18 1022 10 16 N/A
6:55 am 06:55 Sunny 49 9.6 45 7.3 86 86 N N/A 30.21 1023 10 16 N/A
7:15 am 07:15 Sunny 50 10 46 7.5 85 85 SE 5 7 30.21 1023 10 16 N/A
7:35 am 07:35 Sunny 51 10.3 46 8 86 86 N N/A 30.21 1023 10 16 N/A
7:55 am 07:55 Sunny 53 11.5 48 9 85 85 N N/A 30.21 1023 10 16 N/A
8:15 am 08:15 Sunny 55 12.5 49 9.7 83 83 N N/A 30.21 1023 10 16 N/A
8:35 am 08:35 Sunny 55 12.5 49 9.5 82 82 N N/A 30.21 1023 10 16 N/A
8:55 am 08:55 Sunny 57 13.8 50 10.2 79 79 NNE 5 7 30.21 1023 10 16 N/A
9:15 am 09:15 Sunny 60 15.3 51 10.6 74 74 N N/A 30.21 1023 10 16 N/A
9:35 am 09:35 Sunny 61 16 48 9.1 64 64 N N/A 30.21 1023 10 16 N/A
9:55 am 09:55 Sunny 62 16.6 50 10 65 65 N N/A 30.21 1023 10 16 N/A
10:15 am 10:15 Sunny 66 18.8 51 10.4 58 58 N N/A 30.18 1022 10 16 N/A
10:35 am 10:35 Sunny 69 20.8 52 11.2 54 54 undefined N/A 30.18 1022 10 16 N/A
10:55 am 10:55 Sunny 70 21 52 11 53 53 N N/A 30.18 1022 10 16 N/A
11:15 am 11:15 Sunny 74 23.6 52 11.1 45 45 N N/A 30.18 1022 10 16 N/A
11:35 am 11:35 Sunny 74 23.6 47 8.4 38 38 ENE 3 6 30.18 1022 10 16 N/A
11:55 am 11:55 Sunny 74 23.6 42 5.6 31 31 NE 3 6 30.18 1022 10 16 N/A
12:15 pm 12:15 Sunny 77 24.9 42 5.7 29 29 ENE 3 6 30.18 1022 10 16 N/A
12:35 pm 12:35 Sunny 77 25.1 44 6.8 31 31 N N/A 30.18 1022 10 16 N/A
12:55 pm 12:55 Sunny 78 25.6 41 5.1 27 27 undefined N/A 30.18 1022 10 16 N/A
1:15 pm 13:15 Sunny 80 26.5 43 6 27 27 E 7 11 30.18 1022 10 16 N/A
1:35 pm 13:35 Sunny 80 26.5 43 6.2 27 27 ENE 7 11 30.15 1021 10 16 N/A
1:55 pm 13:55 Sunny 80 26.5 46 7.7 30 30 undefined N/A 30.15 1021 10 16 N/A
2:15 pm 14:15 Sunny 80 26.5 44 6.4 28 28 NE 7 11 30.15 1021 10 16 N/A
2:35 pm 14:35 Sunny 80 26.5 42 5.8 27 27 undefined N/A 30.15 1021 10 16 N/A
2:55 pm 14:55 Sunny 81 27 42 5.5 25 25 NE 7 11 30.15 1021 10 16 N/A
3:15 pm 15:15 Sunny 80 26.8 42 5.5 26 26 NE 5 7 30.15 1021 10 16 N/A
3:35 pm 15:35 Sunny 81 27.2 42 5.3 25 25 NE 6 9 30.12 1020 10 16 N/A
3:55 pm 15:55 Sunny 80 26.6 44 6.7 28 28 NE 9 15 30.12 1020 10 16 N/A
4:15 pm 16:15 Sunny 81 27.1 41 5.2 25 25 undefined N/A 30.12 1020 10 16 N/A
4:35 pm 16:35 Sunny 81 27.2 42 5.4 25 25 undefined N/A 30.12 1020 10 16 N/A
4:55 pm 16:55 Sunny 80 26.6 44 6.4 28 28 undefined N/A 30.12 1020 10 16 N/A
5:15 pm 17:15 Sunny 80 26.5 44 6.4 28 28 undefined N/A 30.12 1020 10 16 N/A
5:35 pm 17:35 Sunny 80 26.5 43 6.3 28 28 undefined N/A 30.12 1020 10 16 N/A
5:55 pm 17:55 Sunny 80 26.5 44 6.9 29 29 undefined N/A 30.12 1020 10 16 N/A
6:15 pm 18:15 Sunny 77 25.1 45 7.2 32 32 undefined N/A 30.09 1019 10 16 N/A
6:35 pm 18:35 Sunny 75 23.9 47 8.5 38 38 undefined N/A 30.09 1019 10 16 N/A
6:55 pm 18:55 Sunny 74 23.6 46 7.6 36 36 NE 16 26 30.12 1020 10 16 N/A
7:15 pm 19:15 Sunny 74 23.6 48 8.8 39 39 NNE 14 22 30.12 1020 10 16 N/A
7:35 pm 19:35 Sunny 73 22.5 48 8.9 42 42 NNE 9 15 30.12 1020 10 16 N/A
7:55 pm 19:55 Sunny 69 20.8 47 8.5 45 45 NE 12 19 30.12 1020 10 16 N/A
8:15 pm 20:15 Sunny 69 20.8 48 8.8 46 46 NNE 9 15 30.12 1020 10 16 N/A
8:35 pm 20:35 Clear 69 20.8 48 9 47 47 NNE 7 11 30.12 1020 10 16 N/A
8:55 pm 20:55 Clear 69 20.8 49 9.2 48 48 undefined N/A 30.12 1020 10 16 N/A
9:15 pm 21:15 Clear 69 20.8 49 9.4 48 48 NE 9 15 30.12 1020 10 16 N/A
9:35 pm 21:35 Clear 69 20.8 48 9.1 47 47 NNE 9 15 30.15 1021 10 16 N/A
9:55 pm 21:55 Clear 68 19.8 48 9.1 50 50 NE 7 11 30.15 1021 10 16 N/A
10:15 pm 22:15 Clear 64 18 46 7.9 52 52 NNE 8 13 30.15 1021 10 16 N/A
10:35 pm 22:35 Clear 64 18 46 7.6 51 51 undefined N/A 30.15 1021 10 16 N/A
10:55 pm 22:55 Clear 64 17.9 45 7.4 50 50 NE 10 17 30.15 1021 10 16 N/A
11:15 pm 23:15 Clear 63 17 44 6.9 52 52 NNE 9 15 30.15 1021 10 16 N/A
11:35 pm 23:35 Clear 62 16.6 46 7.5 55 55 undefined N/A 30.18 1022 10 16 N/A
11:55 pm 23:55 Clear 62 16.6 43 6.2 50 50 undefined N/A 30.18 1022 10 16 N/A

Powered by AerisWeather